Location: Unspecified
(43.4354°N, 0.0000°E)
Time: 13:25:39
(UTC+00:00)

Vanguard 2 Rocket - Pass Details

Date: 18 June 2019
Orbit: 554 x 3326 km, 32.9° (Epoch: 18 July)

Event Time Altitude Azimuth Distance (km) Brightness Sun altitude
Rises 03:36:24 0° 275° (W) 6,196 10.7 -6.9°
Reaches altitude 10° 03:40:20 10° 269° (W) 5,486 10.4 -6.4°
Maximum altitude 03:56:29 44° 205° (SSW) 4,067 9.8 -4.1°
Drops below altitude 10° 04:14:29 10° 142° (SE) 6,037 11.1 -1.5°
Sets 04:19:08 0° 136° (SE) 6,837 11.5 -0.8°
